User: anonymous   Login
Location: Unspecified
(0.0000°N, 0.0000°E)
Time: 18:22:55
(UTC+00:00)
Language:

STARLINK-30437 - Orbit

View from above orbital plane
View from above orbital plane
View from above satellite
View from above satellite

Ground track
Ground track

The orbit is defined by the following mean orbital elements,

1 58036U          26145.20757499 +.00000000 +00000-0 +89811-5 0 00008
2 58036  53.1610  82.7766 0001260  97.7190 262.3954 15.30188219    07
Epoch (UTC): 25 May 2026 04:58:54
Eccentricity: 0.0001260
inclination: 53.1610°
perigee height: 474 km
apogee height: 476 km
right ascension of ascending node: 82.7766°
argument of perigee: 97.7190°
revolutions per day: 15.30188219
mean anomaly at epoch: 262.3954°

The dashed part of the orbit path shows where the satellite is in the earth's shadow,  

DLR